Date,TemperatureHighF,TemperatureAvgF,TemperatureLowF,DewpointHighF,DewpointAvgF,DewpointLowF,HumidityHigh,HumidityAvg,HumidityLow,PressureMaxIn,PressureMinIn,WindSpeedMaxMPH,WindSpeedAvgMPH,GustSpeedMaxMPH,PrecipitationSumIn
2013-3-1,75.7,64.0,57.0,60.1,57.2,54.1,96,80,53,29.94,29.78,26,10,34,0.00
2013-3-2,72.9,62.8,57.9,57.5,55.1,52.9,88,77,57,29.94,29.72,8,2,13,0.00
2013-3-3,67.9,60.5,56.9,56.2,51.6,46.7,93,73,52,29.86,29.70,18,6,23,0.00
2013-3-4,73.8,59.0,50.7,56.5,50.2,44.4,94,74,45,29.94,29.54,21,7,29,0.00
2013-3-5,72.4,63.9,48.9,54.8,51.6,46.7,92,65,50,30.01,29.86,9,5,20,0.00
2013-3-6,87.4,64.2,51.7,56.1,51.7,44.9,93,69,23,30.11,29.75,16,4,30,0.02
2013-3-7,68.6,58.1,52.1,56.0,52.4,49.5,96,82,60,30.14,30.02,10,4,22,0.09
2013-3-8,78.8,64.9,50.3,60.2,55.6,48.7,98,75,44,30.21,30.03,13,3,18,0.00
2013-3-9,67.6,61.6,58.5,56.8,55.2,53.3,88,80,64,30.27,30.13,7,3,16,0.00
2013-3-10,68.2,62.2,58.2,59.3,57.2,54.8,90,84,71,30.21,30.10,12,4,18,0.00
2013-3-11,74.6,62.7,53.6,60.6,53.7,48.2,97,74,47,30.28,30.06,17,5,23,0.00
2013-3-12,64.8,58.8,55.3,53.2,51.0,48.4,85,76,65,30.28,30.07,7,3,14,0.00
2013-3-13,72.4,62.0,55.7,55.3,53.0,51.2,90,73,53,30.07,29.95,9,3,17,0.00
2013-3-14,72.3,63.1,55.5,61.6,57.7,52.3,93,83,68,29.98,29.78,15,4,21,0.00
2013-3-15,82.3,65.4,55.2,61.7,58.3,53.8,96,80,46,30.03,29.82,13,4,23,0.00
2013-3-16,70.3,62.1,57.6,58.4,56.1,53.6,89,81,65,30.04,29.80,12,4,22,0.00
2013-3-17,71.2,62.2,58.0,63.3,58.3,55.9,95,88,61,29.80,29.34,22,4,31,0.05
2013-3-18,60.3,57.3,53.5,58.9,56.0,52.1,97,95,94,29.68,29.36,14,4,16,0.65
2013-3-19,59.8,52.4,46.5,53.0,48.8,43.7,96,88,65,30.15,29.68,15,6,22,0.07
2013-3-20,68.7,53.0,40.9,51.2,46.0,39.8,98,79,48,30.35,30.15,7,1,13,0.00
2013-3-21,68.1,54.6,39.9,54.3,47.4,38.6,97,78,56,30.44,30.35,8,2,17,0.00
2013-3-22,70.0,61.4,55.2,58.6,54.4,49.9,90,78,64,30.43,30.29,10,4,18,0.00
2013-3-23,74.2,59.8,43.6,59.2,51.9,42.3,97,77,45,30.30,30.13,14,3,21,0.00
2013-3-24,74.0,60.6,48.5,58.6,52.5,46.9,97,77,48,30.14,30.05,6,1,10,0.00
2013-3-25,83.9,66.1,51.7,57.1,52.6,49.1,97,66,32,30.06,29.88,10,2,17,0.00
2013-3-26,70.9,62.5,54.7,57.8,53.9,50.5,89,74,57,30.28,30.02,12,4,20,0.00
2013-3-27,74.3,63.1,59.8,59.7,56.7,55.6,88,80,59,30.32,30.23,15,4,20,0.00
2013-3-28,71.6,61.9,57.9,59.5,56.3,54.4,90,82,64,30.29,30.10,8,2,17,0.00
2013-3-29,86.6,65.9,55.3,58.6,54.7,45.0,93,73,27,30.09,29.78,13,4,21,0.00
2013-3-30,78.8,63.1,48.2,59.1,53.0,46.0,97,73,43,29.85,29.77,10,3,20,0.00
2013-3-31,79.7,66.9,58.9,61.0,55.5,47.2,96,70,36,29.77,29.47,16,4,23,0.03